Regional Weather Roundup
Issued by NWS Bismarck, ND

Home | Current Version | Previous Version | Text Only | Print | Product List | Glossary On
Versions: 1 2 3 4 5 6 7 8 9 10 11 12 13 14 15 16 17 18 19 20 21 22 23 24 25 26 27 28 29 30 31 32 33 34 35 36 37 38 39 40 41 42 43 44 45 46 47 48 49 50
000
ASUS43 KBIS 230502
RWRBIS

NWR BROADCAST TEXT
NATIONAL WEATHER SERVICE BISMARCK ND
1100 PM CST MON JAN 22 2018

NOTE: "FAIR" INDICATES FEW OR NO CLOUDS BELOW 12,000 FEET WITH NO
SIGNIFICANT WEATHER AND/OR OBSTRUCTIONS TO VISIBILITY.


CITY           SKY/WX    TMP DP  RH WIND       PRES   REMARKS
WILLISTON      FAIR      23  17  78 S6        29.98S WCI  16
MINOT          CLOUDY    17  14  88 SE9       29.98F WCI   6
MINOT AFB      CLOUDY    16  14  90 S6        29.97F FOG     WCI   8
BISMARCK       FOG       23  20  88 S6        30.04S VSB 1/2 WCI  16
DICKINSON      FAIR      26  20  77 W12       29.97R WCI  16
GARRISON         N/A     17  15  92 S6        29.99R WCI   9
HETTINGER ARPT CLOUDY    22  17  81 W8        30.01S WCI  12
JAMESTOWN      CLOUDY    20  19  96 NW6       30.03S WCI  12
CARRINGTON     CLOUDY    21  19  93 S6        30.04F WCI  14
HAZEN            N/A      7   5  92 CALM      30.02S
LINTON         FOG       21  21 100 NW5       30.05S VSB 3/4 WCI  15
MANDAN         FOG       18  18 100 S9        30.02F VSB 1/4 WCI   6
OAKES            N/A     21  21 100 N9        30.04R WCI  11
RUGBY          CLOUDY    19  19 100 S7        30.02R WCI  10
STANLEY        FAIR      21  19  93 SW7       29.96F WCI  13
TIOGA          FAIR      19  19 100 W5        29.95F WCI  13
WATFORD CITY   FAIR      21  18  86 SW5       29.98S WCI  15
$$

CITY           SKY/WX    TMP DP  RH WIND       PRES   REMARKS
GRAND FORKS    CLOUDY    24  19  81 NE7       30.07S WCI  16
GRAND FORKS AF CLOUDY    23  17  78 CALM      30.07S
DEVILS LAKE    CLOUDY    19  18  95 S9        30.04S WCI   8
FARGO          CLOUDY    25  20  81 N12       30.03S WCI  14
CANDO          CLOUDY    19  19 100 S8        30.05S WCI   9
CAVALIER         N/A     23  18  80 SE5       30.07S WCI  17
GRAFTON        CLOUDY    23  18  80 CALM      30.09S
GWINNER          N/A     21  19  93 N12       30.03S WCI   9
LANGDON        CLOUDY    19  19 100 S7G14     30.02F WCI  10
ROLLA          CLOUDY    19  19 100 S13       30.00S FOG     WCI   7
WALHALLA       FAIR      23  23 100 SE6       30.06F WCI  16
$$

CITY           SKY/WX    TMP DP  RH WIND       PRES   REMARKS
ABERDEEN       CLOUDY    22  21  96 N10       30.05S WCI  11
MOBRIDGE       FOG       23  20  88 W5        30.01R VSB 1/2 WCI  17
BUFFALO          N/A     28  20  71 W7        29.97R
RAPID CITY     PTCLDY    30  19  63 NW15      30.03R WCI  19
GLASGOW        PTCLDY    18  13  80 W7        29.99S WCI   9
SIDNEY         PTCLDY    17  15  92 S8        30.00S WCI   7
WOLF POINT     MOCLDY    15  10  80 W9        30.02S WCI   3
GLENDIVE       MOCLDY    21  16  81 S3        30.03S
MILES CITY     CLOUDY    26  21  81 SW6       30.06S WCI  19
BAKER          CLOUDY    20  16  84 MISG      30.04R
$$

CITY           SKY/WX    TMP DP  RH WIND       PRES   REMARKS
BILLINGS       MOCLDY    29  18  63 W18       30.10R WCI  16
GREAT FALLS    MOCLDY    25  16  68 S10       30.07S WCI  15
$$





USA.gov is the U.S. government's official web portal to all federal, state and local government web resources and services.